2020-102B

Last updated on Fri Jan 22 2021 00:02:02 GMT+0000 (Coordinated Universal Time)

1 47297U 20102B 21021.75667708 .00000597 00000-0 31510-4 0 9991 2 47297 97.4326 121.6616 0007769 71.5076 80.0388 15.19289625 4627
UTC large
Height (km)
Speed (km/s)
/
Latitude / Longitude
Inclination (degrees)
Orbital Period (minutes)
Azimuth
Elevation
Range (km)
Doppler Factor

Next 0 passes for location: London (51.5072 / 0.1276)

Sorry there are no passes over London.